Tracking 19164 objects as of 20-May-2018
HD Live streaming from Space Station
objects crossing your sky now

NAVSTAR 19 (USA 54)

Track NAVSTAR 19 (USA 54) now!
NAVSTAR 19 (USA 54) is classified as:


NORAD ID: 20533
Int'l Code: 1990-025A
Perigee: 20,959.6 km
Apogee: 21,170.3 km
Inclination: 55.5 °
Period: 753.8 minutes
Semi major axis: 27435 km
RCS: 0.6015 m2 (medium)
Launch date: March 26, 1990
Source: United States (US)
Launch site: AIR FORCE EASTERN TEST RANGE (AFETR)
PRN:
aabbcc
Your satellite tracking list
Your tracking list is empty




NASA's NSSDC Master Catalog

Two Line Element Set (TLE):
1 20533U 90025A   18139.12012896 -.00000072  00000-0  00000+0 0  9999
2 20533  55.5429 353.7254 0038393 164.6998 191.6702  1.91039615198709
Source of the keplerian elements: AFSPC